FW7517 Weather Reports


time (UTC)temp
C
wind
direction
speed
KPH
gust
KPH
rain 1hr
cm
rain 24hr
cm
rain mn
cm
humidity
%
barometer
mb
20260509102139 8 146 4.8 6.4 0.00 0.00 0.00 59 998.9
20260509101624 8 136 4.8 6.4 0.00 0.00 0.00 58 998.9
20260509101053 8 139 3.2 4.8 0.00 0.00 0.00 59 998.9
20260509100524 8 153 3.2 4.8 0.00 0.00 0.00 58 998.9
20260509100004 8 136 4.8 6.4 0.00 0.00 0.00 57 999.2
20260509095450 8 147 3.2 6.4 0.00 0.00 0.00 57 999.2
20260509094924 8 158 4.8 6.4 0.00 0.00 0.00 57 999.2
20260509094418 8 154 3.2 6.4 0.00 0.00 0.00 57 999.5
20260509093902 8 153 3.2 4.8 0.00 0.00 0.00 58 999.5
20260509093559 8 153 3.2 6.4 0.00 0.00 0.00 58 999.5
20260509092831 8 155 4.8 6.4 0.00 0.00 0.00 58 999.5
20260509092305 8 165 4.8 6.4 0.00 0.00 0.00 59 999.5
20260509091758 8 156 3.2 6.4 0.00 0.00 0.00 60 999.5
20260509091255 8 145 4.8 9.7 0.00 0.00 0.00 60 1000.0
20260509090749 8 157 4.8 9.7 0.00 0.00 0.00 60 1000.0
20260509090223 8 157 6.4 6.4 0.00 0.00 0.00 60 999.5
20260509085656 8 148 4.8 6.4 0.00 0.00 0.00 60 1000.0
20260509085349 8 152 3.2 4.8 0.00 0.00 0.00 60 1000.0
20260509084627 8 150 3.2 4.8 0.00 0.00 0.00 61 1000.0
20260509084344 8 156 3.2 6.4 0.00 0.00 0.00 61 1000.0
20260509083556 8 156 1.6 6.4 0.00 0.00 0.00 60 1000.3
20260509083050 8 162 3.2 4.8 0.00 0.00 0.00 60 1000.0
20260509082742 8 141 4.8 6.4 0.00 0.00 0.00 59 1000.0
20260509082008 8 154 4.8 6.4 0.00 0.00 0.00 60 1000.3
20260509081503 8 146 4.8 6.4 0.00 0.00 0.00 61 1000.3
20260509080938 8 158 1.6 3.2 0.00 0.00 0.00 63 1000.7
20260509080430 8 156 3.2 3.2 0.00 0.00 0.00 63 1000.7
20260509075920 8 126 1.6 3.2 0.00 0.00 0.00 64 1001.0
20260509075416 8 132 1.6 4.8 0.00 0.00 0.00 64 1001.0
20260509074915 8 137 3.2 4.8 0.00 0.00 0.00 64 1000.7
20260509074629 8 150 3.2 4.8 0.00 0.00 0.00 64 1000.7
20260509073858 8 143 3.2 4.8 0.00 0.00 0.00 63 1001.0
20260509073655 8 143 4.8 4.8 0.00 0.00 0.00 64 1001.3
20260509072325 8 146 3.2 4.8 0.00 0.00 0.00 65 1001.3
20260509071822 8 150 1.6 3.2 0.00 0.00 0.00 66 1001.3
20260509071309 7 157 1.6 1.6 0.00 0.00 0.00 68 1001.3
20260509070801 7 157 1.6 3.2 0.00 0.00 0.00 67 1001.7
20260509070258 7 157 0.0 3.2 0.00 0.00 0.00 68 1001.7
20260509065734 7 157 3.2 4.8 0.00 0.00 0.00 66 1001.7
20260509065231 7 145 1.6 9.7 0.00 0.00 0.00 68 1001.7
20260509064724 7 158 3.2 9.7 0.00 0.00 0.00 67 1002.0
20260509064155 7 184 3.2 4.8 0.00 0.00 0.00 66 1002.3
20260509063630 7 144 0.0 3.2 0.00 0.00 0.00 65 1002.0
20260509063337 7 140 1.6 4.8 0.00 0.00 0.00 63 1002.0
20260509062608 7 164 1.6 4.8 0.00 0.00 0.00 64 1002.0
20260509062539 7 136 1.6 3.2 0.00 0.00 0.00 64 1002.3
20260509061540 7 134 1.6 3.2 0.00 0.00 0.00 64 1002.0
20260509061024 7 135 1.6 3.2 0.00 0.00 0.00 63 1002.3
20260509060517 7 139 0.0 3.2 0.00 0.00 0.00 64 1002.7
20260509060004 7 137 3.2 3.2 0.00 0.00 0.00 63 1002.7
20260509055710 7 148 1.6 3.2 0.00 0.00 0.00 64 1002.7
20260509054930 8 144 1.6 3.2 0.00 0.00 0.00 63 1003.0
20260509054418 8 137 1.6 3.2 0.00 0.00 0.00 63 1003.0
20260509054104 7 137 0.0 3.2 0.00 0.00 0.00 64 1003.0
20260509053338 8 137 0.0 4.8 0.00 0.00 0.00 63 1003.0
20260509052834 8 134 4.8 4.8 0.00 0.00 0.00 61 1003.0
20260509052542 8 137 1.6 3.2 0.00 0.00 0.00 62 1003.4
20260509051753 8 137 1.6 3.2 0.00 0.00 0.00 62 1003.4
20260509051250 8 141 1.6 3.2 0.00 0.00 0.00 62 1003.4
20260509050737 8 137 0.0 3.2 0.00 0.00 0.00 64 1003.4
20260509050220 8 130 1.6 4.8 0.00 0.00 0.00 62 1003.4
20260509045656 8 144 3.2 4.8 0.00 0.00 0.00 60 1003.4
20260509045130 8 134 4.8 4.8 0.00 0.00 0.00 61 1003.4
20260509044625 8 149 3.2 4.8 0.00 0.00 0.00 62 1003.4
20260509044334 8 149 1.6 4.8 0.00 0.00 0.00 63 1003.4
20260509043608 8 162 3.2 6.4 0.00 0.00 0.00 62 1003.4
20260509043050 8 136 6.4 6.4 0.00 0.00 0.00 61 1003.4
20260509042523 8 145 3.2 6.4 0.00 0.00 0.00 62 1003.7
20260509042220 8 158 6.4 6.4 0.00 0.00 0.00 62 1003.7
20260509041451 8 142 3.2 6.4 0.00 0.00 0.00 63 1003.7
20260509040926 8 144 4.8 6.4 0.00 0.00 0.00 63 1003.7
20260509040428 8 146 3.2 6.4 0.00 0.00 0.00 63 1003.7
20260509035858 8 139 3.2 6.4 0.00 0.00 0.00 64 1004.0
20260509035346 8 135 3.2 4.8 0.00 0.00 0.00 65 1004.0
20260509034822 7 134 3.2 4.8 0.00 0.00 0.00 66 1004.0
20260509034543 7 133 3.2 4.8 0.00 0.00 0.00 66 1004.0
20260509033802 7 129 3.2 4.8 0.00 0.00 0.00 66 1004.0
20260509033514 7 129 1.6 4.8 0.00 0.00 0.00 66 1004.4
20260509032731 7 120 1.6 3.2 0.00 0.00 0.00 66 1004.4
20260509032220 7 84 1.6 1.6 0.00 0.00 0.00 65 1004.7
20260509031721 7 83 0.0 1.6 0.00 0.00 0.00 65 1004.4
20260509031215 8 82 0.0 1.6 0.00 0.00 0.00 65 1004.7
20260509030705 8 82 1.6 3.2 0.00 0.00 0.00 64 1004.7
20260509030158 8 80 0.0 6.4 0.00 0.00 0.00 64 1004.7
20260509025641 8 87 0.0 6.4 0.00 0.00 0.00 64 1005.1
20260509025357 8 105 1.6 4.8 0.00 0.00 0.00 65 1004.7
20260509024626 8 133 1.6 4.8 0.00 0.00 0.00 65 1005.1
20260509024103 8 127 3.2 4.8 0.00 0.00 0.00 64 1004.7
20260509023552 7 138 3.2 4.8 0.00 0.00 0.00 65 1005.1
20260509023050 7 134 3.2 3.2 0.00 0.00 0.00 65 1005.1
20260509022549 7 130 3.2 4.8 0.00 0.00 0.00 65 1005.1
20260509022020 7 116 1.6 4.8 0.00 0.00 0.00 65 1005.1
20260509021455 7 104 3.2 4.8 0.00 0.00 0.00 65 1005.1
20260509021150 7 64 1.6 4.8 0.00 0.00 0.00 66 1005.1
20260509020425 5 75 1.6 1.6 0.00 0.00 0.00 70 1005.1
20260509015920 5 63 0.0 0.0 0.00 0.00 0.00 79 1005.1
20260509015353 5 63 0.0 0.0 0.00 0.00 0.00 74 1005.1
20260509014849 5 63 0.0 0.0 0.00 0.00 0.00 76 1005.1
20260509014323 5 63 0.0 0.0 0.00 0.00 0.00 81 1005.1
20260509013800 5 63 0.0 0.0 0.00 0.00 0.00 80 1004.7
20260509013250 5 63 0.0 0.0 0.00 0.00 0.00 80 1005.1
20260509012740 5 63 0.0 0.0 0.00 0.00 0.00 75 1005.1
20260509012228 5 63 0.0 0.0 0.00 0.00 0.00 74 1005.1
20260509011923 6 63 0.0 0.0 0.00 0.00 0.00 71 1005.1
20260509011152 6 63 0.0 0.0 0.00 0.00 0.00 72 1004.7
20260509010624 6 63 0.0 0.0 0.00 0.00 0.00 67 1004.7
20260509010116 7 63 0.0 0.0 0.00 0.00 0.00 68 1004.7
20260509005601 7 62 0.0 0.0 0.00 0.00 0.00 68 1004.7
20260509005053 8 61 0.0 0.0 0.00 0.00 0.00 62 1005.1
20260509004530 8 61 0.0 3.2 0.00 0.00 0.00 60 1004.7
20260509004020 8 62 0.0 4.8 0.00 0.00 0.00 59 1004.7
20260509003521 8 58 0.0 4.8 0.00 0.00 0.00 59 1005.1
20260509003240 9 59 0.0 3.2 0.00 0.00 0.00 57 1004.7
20260509002724 9 74 1.6 4.8 0.00 0.00 0.00 56 1004.7
20260509001958 10 61 1.6 9.7 0.00 0.00 0.00 56 1005.1
20260509001450 10 72 1.6 9.7 0.00 0.00 0.00 55 1005.1
20260509000926 10 84 6.4 9.7 0.00 0.00 0.00 54 1005.1
20260509000426 11 350 1.6 3.2 0.00 0.00 0.00 55 1004.7
20260508235922 10 24 1.6 3.2 0.00 0.00 0.00 55 1005.1
20260508235631 11 2 0.0 1.6 0.00 0.00 0.00 55 1004.7
20260508234907 10 20 0.0 3.2 0.00 0.00 0.00 55 1005.1
20260508234359 11 11 1.6 4.8 0.00 0.00 0.00 55 1004.4
20260508233850 11 31 1.6 11.3 0.00 0.00 0.00 53 1004.7
20260508233338 11 78 6.4 6.4 0.00 0.00 0.00 51 1004.7
20260508232823 12 331 3.2 4.8 0.00 0.00 0.00 46 1005.1
20260508232253 13 333 0.0 3.2 0.00 0.00 0.00 45 1005.1
20260508231728 13 339 3.2 6.4 0.00 0.00 0.00 46 1004.7
20260508231224 13 346 1.6 11.3 0.00 0.00 0.00 42 1004.7
20260508230709 13 327 3.2 12.9 0.00 0.00 0.00 44 1005.1
20260508230159 14 348 3.2 12.9 0.00 0.00 0.00 40 1004.7
20260508225652 14 335 8.0 12.9 0.00 0.00 0.00 41 1005.1
20260508225126 14 328 3.2 11.3 0.00 0.00 0.00 41 1005.1
20260508224626 14 355 3.2 12.9 0.00 0.00 0.00 40 1005.1
20260508224101 14 6 6.4 16.1 0.00 0.00 0.00 40 1005.1
20260508223554 14 356 9.7 17.7 0.00 0.00 0.00 39 1005.1
20260508223029 14 340 9.7 14.5 0.00 0.00 0.00 40 1005.1
20260508222522 14 317 8.0 16.1 0.00 0.00 0.00 43 1005.1
20260508222008 14 323 12.9 16.1 0.00 0.00 0.00 39 1005.1
20260508221455 14 359 8.0 14.5 0.00 0.00 0.00 38 1005.1
20260508220938 13 358 4.8 16.1 0.00 0.00 0.00 41 1005.1
20260508220424 13 356 11.3 16.1 0.00 0.00 0.00 40 1005.5
20260508220136 13 338 9.7 20.9 0.00 0.00 0.00 41 1005.1
20260508215402 14 10 17.7 20.9 0.00 0.00 0.00 39 1005.1
20260508214849 13 288 11.3 16.1 0.00 0.00 0.00 41 1005.1
20260508214327 14 314 6.4 25.7 0.00 0.00 0.00 41 1005.1
20260508213819 14 283 14.5 25.7 0.00 0.00 0.00 41 1005.1
20260508213307 14 345 14.5 17.7 0.00 0.00 0.00 41 1005.1
20260508212800 14 308 6.4 17.7 0.00 0.00 0.00 40 1005.1
20260508212258 14 339 9.7 24.1 0.00 0.00 0.00 40 1005.1
20260508211756 15 291 9.7 24.1 0.00 0.00 0.00 41 1005.1
20260508211706 15 343 6.4 20.9 0.00 0.00 0.00 41 1005.1
20260508210723 15 282 6.4 30.6 0.00 0.00 0.00 41 1005.1
20260508210436 15 287 8.0 30.6 0.00 0.00 0.00 41 1005.1
20260508205702 15 338 17.7 25.7 0.00 0.00 0.00 41 1005.1
20260508205139 15 307 17.7 27.4 0.00 0.00 0.00 39 1005.1
20260508204849 15 304 9.7 27.4 0.00 0.00 0.00 40 1005.1
20260508204059 15 325 9.7 25.7 0.00 0.00 0.00 39 1005.5
20260508203529 15 348 14.5 17.7 0.00 0.00 0.00 40 1005.5
20260508203021 15 237 8.0 24.1 0.00 0.00 0.00 45 1005.1
20260508202735 15 274 14.5 24.1 0.00 0.00 0.00 39 1005.1
20260508201958 15 310 6.4 30.6 0.00 0.00 0.00 43 1005.5
20260508201715 15 103 3.2 30.6 0.00 0.00 0.00 44 1005.1
20260508201147 15 285 9.7 16.1 0.00 0.00 0.00 40 1005.5
20260508200426 14 260 3.2 20.9 0.00 0.00 0.00 42 1005.1
20260508200126 14 336 6.4 20.9 0.00 0.00 0.00 42 1005.5
20260508195352 15 247 6.4 14.5 0.00 0.00 0.00 38 1005.5
20260508194850 14 293 9.7 24.1 0.00 0.00 0.00 47 1005.8
20260508194350 15 289 4.8 24.1 0.00 0.00 0.00 36 1005.1
20260508193821 16 357 9.7 27.4 0.00 0.00 0.00 37 1005.5
20260508193255 14 327 19.3 27.4 0.00 0.00 0.00 35 1005.5
20260508193009 15 300 14.5 24.1 0.00 0.00 0.00 36 1005.5
20260508192223 14 314 12.9 16.1 0.00 0.00 0.00 38 1006.2
20260508191653 13 8 3.2 9.7 0.00 0.00 0.00 41 1005.8
20260508191128 14 343 6.4 14.5 0.00 0.00 0.00 50 1006.2
20260508190628 14 144 3.2 16.1 0.00 0.00 0.00 37 1005.8
20260508190106 13 311 12.9 16.1 0.00 0.00 0.00 45 1006.2
20260508185824 14 299 4.8 17.7 0.00 0.00 0.00 50 1005.8
20260508185307 15 280 4.8 17.7 0.00 0.00 0.00 38 1006.2
20260508184758 14 3 4.8 24.1 0.00 0.00 0.00 39 1006.2
20260508184028 15 305 14.5 24.1 0.00 0.00 0.00 37 1006.2
20260508183501 14 286 4.8 22.5 0.00 0.00 0.00 40 1006.2
20260508182951 13 352 16.1 20.9 0.00 0.00 0.00 40 1006.2
20260508182449 13 302 6.4 24.1 0.00 0.00 0.00 41 1006.2
20260508182209 14 327 16.1 24.1 0.00 0.00 0.00 40 1006.2
20260508181419 14 312 6.4 24.1 0.00 0.00 0.00 43 1006.5
20260508180857 14 309 9.7 24.1 0.00 0.00 0.00 41 1006.5
20260508180552 13 260 8.0 20.9 0.00 0.00 0.00 44 1006.5
20260508175823 13 276 6.4 17.7 0.00 0.00 0.00 44 1006.5
20260508175519 13 308 3.2 14.5 0.00 0.00 0.00 44 1006.8
20260508174720 13 336 12.9 16.1 0.00 0.00 0.00 43 1006.8
20260508174156 13 316 1.6 22.5 0.00 0.00 0.00 44 1006.8
20260508173629 13 328 12.9 22.5 0.00 0.00 0.00 44 1006.8
20260508173123 13 277 6.4 22.5 0.00 0.00 0.00 43 1006.8
20260508172609 13 219 3.2 24.1 0.00 0.00 0.00 42 1007.2
20260508172051 13 316 17.7 24.1 0.00 0.00 0.00 43 1007.2
20260508171539 13 317 9.7 17.7 0.00 0.00 0.00 42 1007.2
20260508171024 13 192 8.0 17.7 0.00 0.00 0.00 42 1007.2
20260508170935 12 258 8.0 14.5 0.00 0.00 0.00 44 1007.2
20260508165928 13 336 8.0 17.7 0.00 0.00 0.00 43 1007.2
20260508165422 12 295 6.4 20.9 0.00 0.00 0.00 45 1007.5
20260508164908 12 320 9.7 20.9 0.00 0.00 0.00 47 1007.5
20260508164359 12 296 6.4 22.5 0.00 0.00 0.00 46 1007.5
20260508163853 12 353 9.7 25.7 0.00 0.00 0.00 46 1007.9
20260508163327 12 238 9.7 25.7 0.00 0.00 0.00 45 1007.5
20260508162826 11 329 9.7 25.7 0.00 0.00 0.00 46 1007.9
20260508162306 12 335 14.5 25.7 0.00 0.00 0.00 47 1007.5
20260508161752 12 242 8.0 14.5 0.00 0.00 0.00 47 1007.9
20260508161250 12 337 6.4 12.9 0.00 0.00 0.00 47 1007.9
20260508160732 12 240 4.8 17.7 0.00 0.00 0.00 46 1007.9
20260508160229 12 259 6.4 17.7 0.00 0.00 0.00 48 1007.9
20260508155728 12 197 8.0 22.5 0.00 0.00 0.00 48 1007.9
20260508155158 11 283 11.3 22.5 0.00 0.00 0.00 48 1007.9
20260508154700 11 191 8.0 22.5 0.00 0.00 0.00 49 1007.9
20260508154146 11 230 6.4 22.5 0.00 0.00 0.00 50 1007.9
20260508154109 11 334 12.9 20.9 0.00 0.00 0.00 51 1007.9
20260508153110 11 302 6.4 17.7 0.00 0.00 0.00 51 1007.9
20260508152601 11 311 6.4 14.5 0.00 0.00 0.00 53 1008.2
20260508152311 11 192 6.4 14.5 0.00 0.00 0.00 52 1008.2
20260508151531 10 3 8.0 20.9 0.00 0.00 0.00 55 1008.2
20260508151020 11 264 14.5 22.5 0.00 0.00 0.00 53 1008.2
20260508150519 11 345 3.2 16.1 0.00 0.00 0.00 55 1008.2
20260508145956 10 325 0.0 16.1 0.00 0.00 0.00 56 1008.2
20260508145510 10 298 4.8 14.5 0.00 0.00 0.00 59 1008.5
20260508144409 10 322 4.8 11.3 0.00 0.00 0.00 59 1008.5
20260508143902 10 213 4.8 11.3 0.00 0.00 0.00 61 1008.5
20260508143339 9 318 1.6 12.9 0.00 0.00 0.00 62 1008.5
20260508142824 10 301 8.0 12.9 0.00 0.00 0.00 61 1008.5
20260508142259 10 334 9.7 12.9 0.00 0.00 0.00 64 1008.5
20260508141729 9 348 3.2 9.7 0.00 0.00 0.00 65 1008.9
20260508141221 9 295 3.2 9.7 0.00 0.00 0.00 67 1008.9
20260508140709 9 232 1.6 9.7 0.00 0.00 0.00 66 1008.5
20260508140159 10 188 3.2 9.7 0.00 0.00 0.00 66 1008.5
20260508135653 9 334 1.6 9.7 0.00 0.00 0.00 66 1008.5
20260508135127 9 239 3.2 11.3 0.00 0.00 0.00 66 1008.9
20260508134626 8 281 3.2 12.9 0.00 0.00 0.00 69 1008.9
20260508134330 8 252 3.2 12.9 0.00 0.00 0.00 70 1008.9
20260508133551 8 205 3.2 6.4 0.00 0.00 0.00 73 1008.9
20260508133050 7 249 3.2 6.4 0.00 0.00 0.00 72 1008.9
20260508133034 7 201 3.2 11.3 0.00 0.00 0.00 73 1008.9
20260508132028 7 212 3.2 11.3 0.00 0.00 0.00 75 1008.9
20260508132012 6 306 3.2 6.4 0.00 0.00 0.00 75 1009.2
20260508131026 6 320 1.6 6.4 0.00 0.00 0.00 77 1009.2
20260508130500 6 302 1.6 9.7 0.00 0.00 0.00 78 1009.2
20260508125952 5 238 3.2 9.7 0.00 0.00 0.00 78 1008.9
20260508125422 5 204 4.8 4.8 0.00 0.00 0.00 80 1009.2
20260508124923 4 198 4.8 4.8 0.00 0.00 0.00 82 1009.2
20260508124402 4 303 3.2 3.2 0.00 0.00 0.00 83 1009.2
20260508123852 3 300 0.0 1.6 0.00 0.00 0.00 85 1009.6
20260508123547 3 307 1.6 3.2 0.00 0.00 0.00 86 1009.6
20260508122826 3 215 1.6 4.8 0.00 0.00 0.00 88 1009.2
20260508122319 3 288 3.2 3.2 0.00 0.00 0.00 89 1009.6
20260508121756 2 325 0.0 0.0 0.00 0.00 0.00 90 1009.6
20260508121230 2 333 0.0 0.0 0.00 0.00 0.00 94 1009.6
20260508120722 1 333 0.0 0.0 0.00 0.00 0.00 95 1009.2
20260508120208 1 304 0.0 1.6 0.00 0.00 0.00 97 1009.2
20260508115702 1 343 0.0 1.6 0.00 0.00 0.00 99 1009.2
20260508115138 0 347 0.0 0.0 0.00 0.00 0.00 99 1009.2
20260508114846 0 347 0.0 0.0 0.00 0.00 0.00 99 1009.2
20260508114059 0 348 0.0 0.0 0.00 0.00 0.00 99 1009.2
20260508113244 -1 348 0.0 0.0 0.00 0.00 0.00 99 1009.2
20260508112509 -1 348 0.0 0.0 0.00 0.00 0.00 99 1008.9
20260508112443 -1 348 0.0 0.0 0.00 0.00 0.00 99 1008.9
20260508111716 -1 348 0.0 0.0 0.00 0.00 0.00 99 1009.2
20260508110926 -1 348 0.0 0.0 0.00 0.00 0.00 99 1009.2
20260508110426 -2 348 0.0 0.0 0.00 0.00 0.00 99 1008.5
20260508105922 -2 348 0.0 0.0 0.00 0.00 0.00 99 1008.9
20260508105412 -2 348 0.0 0.0 0.00 0.00 0.00 99 1009.2
20260508105125 -2 348 0.0 0.0 0.00 0.00 0.00 99 1008.9
20260508104607 -2 349 0.0 0.0 0.00 0.00 0.00 99 1008.9
20260508104051 -3 349 0.0 0.0 0.00 0.00 0.00 99 1008.9
20260508103545 -3 349 0.0 0.0 0.00 0.00 0.00 99 1008.9
20260508102826 -3 349 0.0 0.0 0.00 0.00 0.00 99 1008.9